TimeEST,TemperatureF,Dew PointF,Humidity,Sea Level PressureIn,VisibilityMPH,Wind Direction,Wind SpeedMPH,Gust SpeedMPH,PrecipitationIn,Events,Conditions,WindDirDegrees,DateUTC
12:53 AM,30.9,24.1,76,30.35,10.0,ENE,3.5,-,N/A,,Clear,60,2012-12-13 05:53:00
1:53 AM,30.0,24.1,79,30.36,10.0,NNE,4.6,-,N/A,,Clear,30,2012-12-13 06:53:00
2:53 AM,30.0,24.1,79,30.35,10.0,NE,3.5,-,N/A,,Clear,50,2012-12-13 07:53:00
3:53 AM,28.9,24.1,82,30.36,10.0,NE,3.5,-,N/A,,Clear,50,2012-12-13 08:53:00
4:53 AM,28.9,23.0,78,30.35,10.0,ENE,3.5,-,N/A,,Clear,60,2012-12-13 09:53:00
5:53 AM,27.0,23.0,85,30.38,10.0,Calm,Calm,-,N/A,,Clear,0,2012-12-13 10:53:00
6:53 AM,27.0,23.0,85,30.40,10.0,Calm,Calm,-,N/A,,Clear,0,2012-12-13 11:53:00
7:53 AM,26.1,23.0,88,30.40,10.0,Calm,Calm,-,N/A,,Clear,0,2012-12-13 12:53:00
8:53 AM,30.0,25.0,82,30.41,10.0,Calm,Calm,-,N/A,,Clear,0,2012-12-13 13:53:00
9:53 AM,33.1,26.1,75,30.42,10.0,Calm,Calm,-,N/A,,Clear,0,2012-12-13 14:53:00
10:53 AM,35.1,28.0,76,30.41,10.0,Calm,Calm,-,N/A,,Clear,0,2012-12-13 15:53:00
11:53 AM,39.0,28.9,67,30.39,10.0,Calm,Calm,-,N/A,,Clear,0,2012-12-13 16:53:00
12:53 PM,41.0,30.0,65,30.38,10.0,Variable,3.5,-,N/A,,Clear,0,2012-12-13 17:53:00
1:53 PM,45.0,30.0,56,30.35,10.0,Calm,Calm,-,N/A,,Clear,0,2012-12-13 18:53:00
2:53 PM,48.0,28.0,46,30.33,10.0,Calm,Calm,-,N/A,,Clear,0,2012-12-13 19:53:00
3:53 PM,46.9,26.1,44,30.32,10.0,Calm,Calm,-,N/A,,Clear,0,2012-12-13 20:53:00
4:53 PM,46.0,28.0,50,30.32,10.0,Calm,Calm,-,N/A,,Clear,0,2012-12-13 21:53:00
6:53 PM,43.0,27.0,53,30.32,10.0,Calm,Calm,-,N/A,,Clear,0,2012-12-13 23:53:00
7:53 PM,42.8,26.6,53,30.30,10.0,Calm,Calm,-,N/A,,Clear,0,2012-12-14 00:53:00
8:53 PM,41.0,26.1,55,30.32,10.0,Calm,Calm,-,N/A,,Clear,0,2012-12-14 01:53:00
9:53 PM,39.9,28.0,63,30.31,10.0,Calm,Calm,-,N/A,,Clear,0,2012-12-14 02:53:00
10:53 PM,37.0,27.0,67,30.31,10.0,Calm,Calm,-,N/A,,Clear,0,2012-12-14 03:53:00
11:53 PM,36.0,28.0,73,30.31,10.0,Calm,Calm,-,N/A,,Clear,0,2012-12-14 04:53:00